Weather History for KARR - April, 2014

Change the Weather History Date:

Wednesday, April 2, 2014

  Actual Average Record
Temperature  
Mean Temperature 41 °F 44 °F  
Max Temperature 52 °F 55 °F 79 °F (2003)
Min Temperature 29 °F 33 °F 21 °F (2013)
Degree Days  
Heating Degree Days 24 21  
Month to date heating degree days 45 43  
Since 1 July heating degree days 6702 6051  
Cooling Degree Days 0 0  
Month to date cooling degree days 0 0  
Year to date cooling degree days 0 0  
Moisture  
Dew Point 28 °F    
Average Humidity 64    
Maximum Humidity 85    
Minimum Humidity 42    
Precipitation  
Precipitation 0.01 in 0.10 in 0.64 in (2015)
Month to date precipitation 0.01 0.20  
Year to date precipitation 2.58 5.52  
Sea Level Pressure  
Sea Level Pressure 30.12 in    
Wind  
Wind Speed 11 mph (NE)    
Max Wind Speed 20 mph    
Max Gust Speed 23 mph    
Visibility 8 miles    
Events      
T = Trace of Precipitation, MM = Missing Value Source: NWS Daily Summary

Daily Weather History Graph

Daily Weather History Graph

Search for Another Location

Airport or City:

Trip Planner

Search our weather history database for the weather conditions in past years. The results will help you decide how hot, cold, wet, or windy it might be!

Date:

Astronomy

Apr. 02, 2014 Rise Set
Actual Time 6:35 AM CDT 7:20 PM CDT
Civil Twilight 6:06 AM CDT 7:48 PM CDT
Nautical Twilight 5:33 AM CDT 8:22 PM CDT
Astronomical Twilight 4:59 AM CDT 8:56 PM CDT
Moon 8:16 AM CDT (4/2) 10:46 PM CDT (4/2)
Length of Visible Light 13h 41m
Length of Day
12h 45m
Waxing Crescent, 10% of the Moon is Illuminated
Apr 2
Waxing Crescent
Apr 7
First Quarter
Apr 15
Full
Apr 22
Last Quarter
Apr 29
New

Hourly Weather History & Observations

Time (CDT) Temp. Windchill Dew Point Humidity Pressure Visibility Wind Dir Wind Speed Gust Speed Precip Events Conditions
12:52 AM 39.9 °F 36.7 °F 30.9 °F 70% 30.10 in 9.0 mi West 4.6 mph - N/A   Overcast
1:52 AM 37.9 °F 34.4 °F 30.0 °F 73% 30.11 in 9.0 mi SW 4.6 mph - N/A   Partly Cloudy
2:52 AM 37.0 °F 34.5 °F 30.0 °F 76% 30.11 in 9.0 mi WSW 3.5 mph - N/A   Partly Cloudy
3:52 AM 30.9 °F 27.5 °F 27.0 °F 85% 30.11 in 8.0 mi NNW 3.5 mph - N/A   Partly Cloudy
4:52 AM 32.0 °F 24.8 °F 27.0 °F 82% 30.11 in 8.0 mi North 8.1 mph - N/A   Clear
5:52 AM 30.9 °F 24.3 °F 27.0 °F 85% 30.13 in 8.0 mi North 6.9 mph - N/A   Clear
7:52 AM 34.0 °F 28.0 °F 27.0 °F 75% 30.17 in 7.0 mi NE 6.9 mph - N/A   Clear
8:52 AM 37.0 °F 28.9 °F 27.0 °F 67% 30.16 in 7.0 mi NE 12.7 mph - N/A   Clear
9:52 AM 41.0 °F 34.3 °F 28.0 °F 60% 30.17 in 8.0 mi ENE 11.5 mph - N/A   Clear
10:52 AM 44.1 °F 38.6 °F 28.0 °F 53% 30.17 in 7.0 mi East 10.4 mph - N/A   Clear
11:52 AM 46.0 °F 41.0 °F 28.0 °F 50% 30.17 in 7.0 mi East 10.4 mph - N/A   Clear
12:52 PM 46.9 °F - 28.0 °F 48% 30.16 in 8.0 mi ESE 9.2 mph - N/A   Partly Cloudy
1:52 PM 50.0 °F - 28.9 °F 44% 30.13 in 7.0 mi ENE 9.2 mph - N/A   Clear
2:52 PM 50.0 °F - 28.9 °F 44% 30.11 in 8.0 mi East 12.7 mph - N/A   Scattered Clouds
3:52 PM 48.9 °F - 28.9 °F 46% 30.10 in 8.0 mi ENE 11.5 mph - N/A   Overcast
5:52 PM 43.0 °F 35.4 °F 28.0 °F 56% 30.09 in 8.0 mi ENE 16.1 mph - N/A   Overcast
6:52 PM 41.0 °F 34.3 °F 26.1 °F 55% 30.09 in 8.0 mi ENE 11.5 mph - N/A   Overcast
7:52 PM 37.9 °F 29.6 °F 25.0 °F 60% 30.10 in 10.0 mi NE 13.8 mph 23.0 mph N/A   Overcast
8:52 PM 37.0 °F 28.1 °F 25.0 °F 62% 30.08 in 10.0 mi ENE 15.0 mph - N/A   Overcast
9:52 PM 37.0 °F 28.9 °F 26.1 °F 65% 30.09 in 10.0 mi ENE 12.7 mph - N/A   Overcast
10:52 PM 37.0 °F 28.5 °F 26.1 °F 65% 30.06 in 10.0 mi ENE 13.8 mph - N/A   Overcast
11:52 PM 37.9 °F 29.2 °F 28.0 °F 68% 30.04 in 10.0 mi ENE 15.0 mph - 0.00 in   Overcast